TOURFACTS.DK  
Stats and Facts from Tour de France.

Tour de France 2019 starts in 320 days
  Riders   Stages   Teams   Summits   Yearly  


 
Search by year

After 2018 - Stage 21:
 15000 starters.
  5165 different riders.
  638 teams.
  2253 stages.
  456 restdays.
  442940.60 km.
  5684 abandonnees.


Top 3
GC
Geraint Thomas83:17:13
Tom Dumoulin83:19:04
Christopher Froome83:19:37
Climb
Julian Alaphilippe170 pt.
Warren Barguil91 pt.
Rafal Majka76 pt.
Sprint
Peter Sagan477 pt.
Alexander Kristoff246 pt.
Arnaud Démare203 pt.
Youth
Pierre-Roger Latou..83:39:26
Egan Bernal83:45:05
Guillaume Martin84:01:31
Facts from Tour de France 2016
  |   Stages.  |   Stage winners.  |   Days in yellow  |   Average speed.  |   Route.  |   Teams.  |   All riders.  |   Rookies.  |  

  |   Withdrawls.  |   GC.  |   Polka  |   Green  |   White  |   Summits. (In tour)  |   Miscellaneous.  |  

Stage 17 on 20 - 07 - 2016
         Owning:    Christopher Froome      Rafal Majka      Peter Sagan      Adam Yates  

Pick a stage:  1 2 3 4 5 6 7 8 9 10 11 12 13 14 15 16 17 18 19 20 21
  BernFinhaut-Emosson | Dist: 184.00 km.
Cat: 3Côte de SaanenmöserPOLRafal Majka2 points 
Cat: 3Col des MossesPOLRafal Majka2 points 
Cat: 1Col de la ForclazPOLRafal Majka10 points 
Cat: HFinhaut-EmossonRUSIlnur Zakarin50 points 

Average speed for all riders in stage:  36,262 km./hr.
    Place:Name:Team:Time:Km/h:
1
RUSIlnur ZakarinRUSTeam Katusha04:36:33  +  00:00:00=39,920 
2
COLJarlinson Pantano GomezCHEIAM Cycling04:37:28  +  00:00:55=39,789 
3
POLRafal MajkaRUSTinkoff04:37:59  +  00:01:26=39,715 
44 HRVKristijan DurasekITALampre-Merida04:38:05  +  00:01:32=39,700 
55 FRABrice FeilluFRAFortuneo - Vital Concept04:39:06  +  00:02:33=39,556 
66 FRAThomas VoecklerFRADirect Energie04:39:19  +  00:02:46=39,525 
77 ITADomenico PozzovivoFRAAg2r La Mondiale04:39:23  +  00:02:50=39,516 
88 NEDStef ClementCHEIAM Cycling04:39:30  +  00:02:57=39,499 
99 SUISteve MorabitoFRAFDJ04:41:11  +  00:04:38=39,263 
1010 AUSRichie PorteUSABMC Racing Team04:44:32  +  00:07:59=38,800 
1111 KENChristopher FroomeGBRSky Procycling04:44:32  +  00:07:59=38,800 
1212 ENGAdam YatesAUSORICA BikeExchange04:44:40  +  00:08:07=38,782 
1313 FRARomain BardetFRAAg2r La Mondiale04:44:43  +  00:08:10=38,775 
1414 ITAFabio AruKAZAstana Pro Team04:44:51  +  00:08:18=38,757 
1515 RSALouis MeintjesITALampre-Merida04:44:51  +  00:08:18=38,757 
1616 COLNairo QuintanaESPMovistar Team04:45:00  +  00:08:27=38,737 
1717 NEDWout PoelsGBRSky Procycling04:45:12  +  00:08:39=38,710 
1818 NEDBauke MollemaUSATrek - Segafredo04:45:12  +  00:08:39=38,710 
1919 ENGDaniel MartinBELEtixx - Quick Step04:45:19  +  00:08:46=38,694 
2020 ESPMikel NieveGBRSky Procycling04:45:30  +  00:08:57=38,669 
2121 URSTanel KangertKAZAstana Pro Team04:45:44  +  00:09:11=38,637 
2222 ESPJoaquim RodriguezRUSTeam Katusha04:45:44  +  00:09:11=38,637 
2323 CZERoman KreuzigerRUSTinkoff04:46:11  +  00:09:38=38,577 
2424 SUISébastien ReichenbachFRAFDJ04:46:11  +  00:09:38=38,577 
2525 ESPAlejandro ValverdeESPMovistar Team04:46:34  +  00:10:01=38,525 
2626 COLSergio Luis HenaoGBRSky Procycling04:46:48  +  00:10:15=38,494 
2727 BELGreg Van AvermaetUSABMC Racing Team04:47:25  +  00:10:52=38,411 
2828 ESPDaniel MorenoESPMovistar Team04:47:49  +  00:11:16=38,358 
2929 BELSerge PauwelsZAFDimension Data04:48:48  +  00:12:15=38,227 
3030 KAZAlexey LutsenkoKAZAstana Pro Team04:48:48  +  00:12:15=38,227 
3131 ESPHaimar ZubeldiaUSATrek - Segafredo04:49:17  +  00:12:44=38,163 
3232 ITADiego RosaKAZAstana Pro Team04:50:27  +  00:13:54=38,010 
3333 FRATony GallopinBELLotto Soudal04:50:49  +  00:14:16=37,962 
3434 GEREmanuel BuchmannDEUBora-Argon 1804:51:53  +  00:15:20=37,823 
3535 FRAPierre RollandUSATeam Cannondale Drapac04:51:53  +  00:15:20=37,823 
3636 FRAAlexis VuillermozFRAAg2r La Mondiale04:51:53  +  00:15:20=37,823 
3737 WALGeraint ThomasGBRSky Procycling04:52:00  +  00:15:27=37,808 
3838 ESPMikel Landa MeanaGBRSky Procycling04:53:13  +  00:16:40=37,651 
3939 ITAVincenzo NibaliKAZAstana Pro Team04:53:13  +  00:16:40=37,651 
4040 ITADamiano CarusoUSABMC Racing Team04:53:13  +  00:16:40=37,651 
4141 USAPeter StetinaUSATrek - Segafredo04:53:44  +  00:17:11=37,585 
4242 BELThomas De GendtBELLotto Soudal04:57:07  +  00:20:34=37,157 
4343 FRAAnthony RouxFRAFDJ04:57:24  +  00:20:51=37,122 
4444 LUXFränk SchleckUSATrek - Segafredo04:57:29  +  00:20:56=37,111 
4545 SLOJan PolancITALampre-Merida04:57:29  +  00:20:56=37,111 
4646 SUIJakob FuglsangKAZAstana Pro Team04:58:20  +  00:21:47=37,006 
4747 FRAWarren BarguilDEUTeam Giant Alpecin04:58:22  +  00:21:49=37,001 
4848 ESPAlberto LosadaRUSTeam Katusha04:58:38  +  00:22:05=36,968 
4949 ESPLuis Angel MateFRACofidis – Solutions Crédits05:00:14  +  00:23:41=36,771 
5050 FRAJérôme CoppelCHEIAM Cycling05:01:38  +  00:25:05=36,601 
5151 COLWinner AnaconaESPMovistar Team05:02:03  +  00:25:30=36,550 
5252 FRAAmaël MoinardUSABMC Racing Team05:02:30  +  00:25:57=36,496 
5353 FRAJulian AlaphilippeBELEtixx - Quick Step05:02:30  +  00:25:57=36,496 
5454 NEDWilco KeldermanNLDTeam Lotto NL - Jumbo05:02:48  +  00:26:15=36,460 
5555 NEDTimo RoosenNLDTeam Lotto NL - Jumbo05:02:48  +  00:26:15=36,460 
5656 SUIReto HollensteinCHEIAM Cycling05:02:48  +  00:26:15=36,460 
5757 FRAAnthony DelaplaceFRAFortuneo - Vital Concept05:02:48  +  00:26:15=36,460 
5858 LUXBen GastauerFRAAg2r La Mondiale05:02:48  +  00:26:15=36,460 
5959 RSADaryl ImpeyAUSORICA BikeExchange05:02:48  +  00:26:15=36,460 
6060 POLBartosz HuzarskiDEUBora-Argon 1805:02:48  +  00:26:15=36,460 
6161 ITAPaolo TiralongoKAZAstana Pro Team05:02:48  +  00:26:15=36,460 
6262 AUSAdam HansenBELLotto Soudal05:02:48  +  00:26:15=36,460 
6363 DENMichael ValgrenRUSTinkoff05:02:48  +  00:26:15=36,460 
6464 USATejay Van GarderenUSABMC Racing Team05:02:48  +  00:26:15=36,460 
6565 CZEJan BártaDEUBora-Argon 1805:02:48  +  00:26:15=36,460 
6666 ESPLuis León SánchezKAZAstana Pro Team05:02:48  +  00:26:15=36,460 
6767 JPNYukiya ArashiroITALampre-Merida05:02:48  +  00:26:15=36,460 
6868 BELJasper StuyvenUSATrek - Segafredo05:03:42  +  00:27:09=36,352 
6969 NEDLaurens ten DamDEUTeam Giant Alpecin05:04:32  +  00:27:59=36,252 
7070 SVKPeter SaganRUSTinkoff05:05:36  +  00:29:03=36,126 
7171 BELOliver NaesenCHEIAM Cycling05:06:59  +  00:30:26=35,963 
7272 UKRAndriy GrivkoKAZAstana Pro Team05:06:59  +  00:30:26=35,963 
7373 SUIMartin ElmigerCHEIAM Cycling05:06:59  +  00:30:26=35,963 
7474 NEDDylan Van BaarleUSATeam Cannondale Drapac05:06:59  +  00:30:26=35,963 
7575 ERIDaniel TeklehaimanotZAFDimension Data05:06:59  +  00:30:26=35,963 
7676 FRAMickaël CherelFRAAg2r La Mondiale05:06:59  +  00:30:26=35,963 
7777 DENChris Anker SørensenFRAFortuneo - Vital Concept05:06:59  +  00:30:26=35,963 
7878 NEDTom DumoulinDEUTeam Giant Alpecin05:06:59  +  00:30:26=35,963 
7979 FRAArthur VichotFRAFDJ05:06:59  +  00:30:26=35,963 
8080 ESPMarkel IrizarUSATrek - Segafredo05:06:59  +  00:30:26=35,963 
8181 FRAJérémy RoyFRAFDJ05:06:59  +  00:30:26=35,963 
8282 SUIMichael SchärUSABMC Racing Team05:06:59  +  00:30:26=35,963 
8383 SLOLuka PibernikITALampre-Merida05:06:59  +  00:30:26=35,963 
8484 GERAndreas SchillingerDEUBora-Argon 1805:06:59  +  00:30:26=35,963 
8585 USABrent BookwalterUSABMC Racing Team05:06:59  +  00:30:26=35,963 
8686 FRAFabrice JeandesbozFRADirect Energie05:06:59  +  00:30:26=35,963 
8787 ESPDaniel NavarroFRACofidis – Solutions Crédits05:06:59  +  00:30:26=35,963 
8888 NEDRoy CurversDEUTeam Giant Alpecin05:06:59  +  00:30:26=35,963 
8989 ESPImanol ErvitiESPMovistar Team05:06:59  +  00:30:26=35,963 
9090 SUIGregory RastUSATrek - Segafredo05:06:59  +  00:30:26=35,963 
9191 PORNelson OliveiraESPMovistar Team05:06:59  +  00:30:26=35,963 
9292 USAAlex HowesUSATeam Cannondale Drapac05:06:59  +  00:30:26=35,963 
9393 FRACyril GautierFRAAg2r La Mondiale05:06:59  +  00:30:26=35,963 
9494 ESPJon Izaguirre InsaustiESPMovistar Team05:06:59  +  00:30:26=35,963 
9595 BELJan BakelantsFRAAg2r La Mondiale05:06:59  +  00:30:26=35,963 
9696 FRASylvain ChavanelFRADirect Energie05:06:59  +  00:30:26=35,963 
9797 SUIMichael AlbasiniAUSORICA BikeExchange05:06:59  +  00:30:26=35,963 
9898 RSAReinardt Janse Van RensburgZAFDimension Data05:06:59  +  00:30:26=35,963 
9999 AUTGeorg PreidlerDEUTeam Giant Alpecin05:06:59  +  00:30:26=35,963 
100100 ITACesare BenedettiDEUBora-Argon 1805:06:59  +  00:30:26=35,963 
101101 HRVRobert KiserlovskiRUSTinkoff05:06:59  +  00:30:26=35,963 
102102 GERPaul MartensNLDTeam Lotto NL - Jumbo05:06:59  +  00:30:26=35,963 
103103 IRLChristopher Juul JensenAUSORICA BikeExchange05:06:59  +  00:30:26=35,963 
104104 AUTPatrick KonradDEUBora-Argon 1805:06:59  +  00:30:26=35,963 
105105 FRAWilliam BonnetFRAFDJ05:07:17  +  00:30:44=35,928 
106106 GERSimon GeschkeDEUTeam Giant Alpecin05:07:20  +  00:30:47=35,922 
107107 BLRVasil KiryienkaGBRSky Procycling05:07:31  +  00:30:58=35,900 
108108 ITAMatteo TosattoRUSTinkoff05:07:31  +  00:30:58=35,900 
109109 NEDTom-Jelte SlagterUSATeam Cannondale Drapac05:07:31  +  00:30:58=35,900 
110110 SUIFabian CancellaraUSATrek - Segafredo05:08:04  +  00:31:31=35,836 
111111 ESPÁngel ViciosoRUSTeam Katusha05:08:04  +  00:31:31=35,836 
112112 FRAFlorian VachonFRAFortuneo - Vital Concept05:08:04  +  00:31:31=35,836 
113113 NEDAlbert TimmerDEUTeam Giant Alpecin05:08:08  +  00:31:35=35,829 
114114 NEDRamon SinkeldamDEUTeam Giant Alpecin05:08:08  +  00:31:35=35,829 
115115 NOREdvald Boasson HagenZAFDimension Data05:08:29  +  00:31:56=35,788 
116116 NEDBert-Jan LindemanNLDTeam Lotto NL - Jumbo05:08:51  +  00:32:18=35,746 
117117 NZLGeorge BennettNLDTeam Lotto NL - Jumbo05:08:56  +  00:32:23=35,736 
118118 GERMarcus BurghardtUSABMC Racing Team05:09:20  +  00:32:47=35,690 
119119 CZEPetr VakocBELEtixx - Quick Step05:09:45  +  00:33:12=35,642 
120120 BELMaarten WynantsNLDTeam Lotto NL - Jumbo05:09:59  +  00:33:26=35,615 
121121 CANAntoine DuchesneFRADirect Energie05:10:52  +  00:34:19=35,514 
122122 AUSMathew HaymanAUSORICA BikeExchange05:13:29  +  00:36:56=35,217 
123123 AUSMichael MatthewsAUSORICA BikeExchange05:13:29  +  00:36:56=35,217 
124124 AUSLuke DurbridgeAUSORICA BikeExchange05:13:29  +  00:36:56=35,217 
125125 FRAPierre-Luc PérichonFRAFortuneo - Vital Concept05:13:40  +  00:37:07=35,197 
126126 WALLuke RoweGBRSky Procycling05:16:24  +  00:39:51=34,893 
127127 GERRobert WagnerNLDTeam Lotto NL - Jumbo05:16:24  +  00:39:51=34,893 
128128 BELSep VanmarckeNLDTeam Lotto NL - Jumbo05:16:24  +  00:39:51=34,893 
129129 NEDDylan GroenewegenNLDTeam Lotto NL - Jumbo05:16:24  +  00:39:51=34,893 
130130 BELIljo KeisseBELEtixx - Quick Step05:16:24  +  00:39:51=34,893 
131131 ITAFabio SabatiniBELEtixx - Quick Step05:16:24  +  00:39:51=34,893 
132132 ETHTsgabu Gebremaryan GrmayITALampre-Merida05:16:24  +  00:39:51=34,893 
133133 PORRui CostaITALampre-Merida05:16:24  +  00:39:51=34,893 
134134 ITAMatteo BonoITALampre-Merida05:16:24  +  00:39:51=34,893 
135135 GERMarcel SiebergBELLotto Soudal05:16:24  +  00:39:51=34,893 
136136 FRAGeoffrey SoupeFRACofidis – Solutions Crédits05:16:24  +  00:39:51=34,893 
137137 FRAChristophe LaporteFRACofidis – Solutions Crédits05:16:24  +  00:39:51=34,893 
138138 FRASamuel DumoulinFRAAg2r La Mondiale05:16:24  +  00:39:51=34,893 
139139 ERINatnael Teweldemedhin BerhaneZAFDimension Data05:16:24  +  00:39:51=34,893 
140140 GERMarcel KittelBELEtixx - Quick Step05:16:24  +  00:39:51=34,893 
141141 FRARomain SicardFRADirect Energie05:16:24  +  00:39:51=34,893 
142142 FRA Alexis GougeardFRAAg2r La Mondiale05:16:24  +  00:39:51=34,893 
143143 USALawson CraddockUSATeam Cannondale Drapac05:16:24  +  00:39:51=34,893 
144144 BELJulien VermoteBELEtixx - Quick Step05:16:24  +  00:39:51=34,893 
145145 ITAOscar GattoRUSTinkoff05:16:24  +  00:39:51=34,893 
146146 NORAlexander KristoffRUSTeam Katusha05:16:24  +  00:39:51=34,893 
147147 ESPRubén PlazaAUSORICA BikeExchange05:16:24  +  00:39:51=34,893 
148148 ARGEduardo SepulvedaFRAFortuneo - Vital Concept05:16:24  +  00:39:51=34,893 
149149 BELJürgen RoelandtsBELLotto Soudal05:16:24  +  00:39:51=34,893 
150150 SLOKristjan KorenUSATeam Cannondale Drapac05:16:24  +  00:39:51=34,893 
151151 GERAndré GreipelBELLotto Soudal05:16:24  +  00:39:51=34,893 
152152 GERTony MartinBELEtixx - Quick Step05:16:24  +  00:39:51=34,893 
153153 BRAMaximilano RichezeBELEtixx - Quick Step05:16:24  +  00:39:51=34,893 
154154 DENLars BakBELLotto Soudal05:16:24  +  00:39:51=34,893 
155155 POLMaciej BodnarRUSTinkoff05:16:24  +  00:39:51=34,893 
156156 AUSLeigh HowardCHEIAM Cycling05:16:24  +  00:39:51=34,893 
157157 FRAAdrien PetitFRADirect Energie05:16:24  +  00:39:51=34,893 
158158 FRANicolas EdetFRACofidis – Solutions Crédits05:16:24  +  00:39:51=34,893 
159159 FRABryan CoquardFRADirect Energie05:16:24  +  00:39:51=34,893 
160160 URSRamunas NavardauskasUSATeam Cannondale Drapac05:16:24  +  00:39:51=34,893 
161161 FRAYohann GèneFRADirect Energie05:16:24  +  00:39:51=34,893 
162162 FRACyril LemoineFRACofidis – Solutions Crédits05:16:24  +  00:39:51=34,893 
163163 ITAJacopo GuarnieriRUSTeam Katusha05:16:24  +  00:39:51=34,893 
164164 ENGIan StannardGBRSky Procycling05:16:24  +  00:39:51=34,893 
165165 GERPaul VossDEUBora-Argon 1805:16:24  +  00:39:51=34,893 
166166 ENGStephen CummingsZAFDimension Data05:16:24  +  00:39:51=34,893 
167167 GERJohn DegenkolbDEUTeam Giant Alpecin05:16:24  +  00:39:51=34,893 
168168 ITADavide CimolaiITALampre-Merida05:16:24  +  00:39:51=34,893 
169169 AUTBernhard EiselZAFDimension Data05:16:24  +  00:39:51=34,893 
170170 BELSam BennettDEUBora-Argon 1805:16:24  +  00:39:51=34,893 
171171 AUTMarco HallerRUSTeam Katusha05:16:24  +  00:39:51=34,893 
172172 NORSondre Holst EngerCHEIAM Cycling05:16:24  +  00:39:51=34,893 
173173 NZLGregory HendersonBELLotto Soudal05:16:24  +  00:39:51=34,893 
174174 NZLShane ArchboldDEUBora-Argon 1805:16:24  +  00:39:51=34,893 
175175 FRAArnold JeannessonFRACofidis – Solutions Crédits05:16:24  +  00:39:51=34,893 
176176 FRAJérôme CousinFRACofidis – Solutions Crédits05:16:24  +  00:39:51=34,893 
177177 FRAArmindo FonsecaFRAFortuneo - Vital Concept05:17:49  +  00:41:16=34,737 
178178 ENGDaniel McLayFRAFortuneo - Vital Concept05:17:49  +  00:41:16=34,737 
179179 NORVegard BreenFRAFortuneo - Vital Concept05:17:52  +  00:41:19=34,732 

Withdrawls: 3
 
Rider
Team
Reason
16  ESPGorka Izaguirre InsaustiESPMovistar TeamDid not finish
95  AUSRohan DennisUSABMC Racing TeamDid not start
192  SLOBorut BozicFRACofidis – Solutions CréditsDid not finish
Todays birthdays.

1878  Jean Novo
1883  Jules Chabas
1890  Ange Aubry
1893  Roger Marye
1913  Paul Maye
1914  Lucien Vlaemynck
1915  Alphonse Antoine
1932  Rolf Graf
1953  Julio Rubiano
1959  Jos Haex
1959  Gerard Veldscholten
1963  Pablo Moreno
1964  Juan Castillo
1977  Iban Mayo
1994  Fernando Gaviria